NOAA 15 1 25338U 98030A 25021.90238913 .00000415 00000-0 18860-3 0 9992 2 25338 98.5503 50.2768 0011010 49.5277 310.6862 14.26862397388371 NAVSTAR 50 (USA 156) 1 26690U 01004A 25021.39017781 -.00000065 00000-0 00000-0 0 9996 2 26690 54.8062 51.4569 0002172 342.2781 199.5015 1.91588433173732 METEOSAT 8 (MSG 1) 1 27509U 02040B 25021.48922161 -.00000094 00000-0 00000-0 0 9996 2 27509 10.2434 45.1278 0013858 61.7342 305.4650 0.97904218 81938 NAVSTAR 51 (USA 166) 1 27663U 03005A 25021.57643365 .00000070 00000-0 00000-0 0 9998 2 27663 55.0215 235.3052 0143152 49.2643 321.6081 2.00562597161058 NAVSTAR 54 (USA 177) 1 28190U 04009A 25021.61116567 -.00000060 00000-0 00000-0 0 9993 2 28190 55.2641 296.2979 0099608 156.1791 33.1358 2.00571656152688 NAVSTAR 55 (USA 178) 1 28361U 04023A 25021.10051814 -.00000029 00000-0 00000-0 0 9991 2 28361 54.5343 107.4344 0153341 286.8876 72.3112 2.00557599150779 NAVSTAR 56 (USA 180) 1 28474U 04045A 25021.44010897 -.00000092 00000-0 00000-0 0 9993 2 28474 55.3750 345.4678 0167217 299.5777 171.6455 2.00563597148165 NOAA 18 1 28654U 05018A 25021.88749916 .00000448 00000-0 26114-3 0 9994 2 28654 98.8556 102.8732 0014664 160.0826 200.0921 14.13493337 14079 NAVSTAR 57 (USA 183) 1 28874U 05038A 25021.61824899 -.00000055 00000-0 00000-0 0 9993 2 28874 55.3090 293.7656 0135292 288.6308 292.4723 2.00570699141573 METEOSAT 9 (MSG 2) 1 28912U 05049B 25021.76123730 .00000139 00000-0 00000-0 0 9992 2 28912 8.1905 58.9795 0000297 213.6155 168.5103 1.00268300 1882 GOES 13 1 29155U 06018A 25021.66933291 .00000071 00000-0 00000-0 0 9994 2 29155 3.1975 82.6899 0065563 259.1494 264.3687 0.98829376 38199 METOP-A 1 29499U 06044A 25021.91951104 .00004888 00000-0 59536-3 0 9996 2 29499 98.3377 108.8737 0181138 256.2641 232.0064 14.72899054950105 NAVSTAR 59 (USA 192) 1 29601U 06052A 25021.37501227 .00000070 00000-0 00000-0 0 9995 2 29601 55.0588 234.3070 0087883 84.1204 276.9344 2.00553776133145 NAVSTAR 60 (USA 196) 1 32260U 07047A 25021.18505006 -.00000037 00000-0 00000-0 0 9997 2 32260 53.7322 101.2198 0159012 79.5397 282.2857 2.00554286126541 NAVSTAR 61 (USA 199) 1 32384U 07062A 25021.24796072 -.00000059 00000-0 00000-0 0 9997 2 32384 55.4535 294.6765 0028130 154.6682 19.0455 2.00559030125246 NOAA 19 1 33591U 09005A 25021.94226278 .00000366 00000-0 21916-3 0 9992 2 33591 99.0184 85.7579 0014239 38.8425 321.3767 14.13265301822269 GOES 14 1 35491U 09033A 25021.59285542 -.00000051 00000-0 00000-0 0 9994 2 35491 0.3537 90.5292 0001758 153.1667 342.8408 1.00275507 1466 GOES 15 1 36411U 10008A 25021.89632544 .00000056 00000-0 00000-0 0 9996 2 36411 0.0447 252.1080 0005596 17.6328 235.9256 1.00274981 54511 ELEKTRO-L 1 37344U 11001A 25021.89331402 -.00000070 00000-0 00000-0 0 9992 2 37344 8.5170 59.5495 0003769 15.4369 359.0218 1.00254018 51368 COSMOS 2471 (GLONASS) 1 37372U 11009A 25021.37389765 -.00000072 00000-0 00000-0 0 9991 2 37372 65.6858 331.7280 0009642 325.1186 128.7502 2.12911546108187 NAVSTAR 66 (USA 232) 1 37753U 11036A 25021.95088918 -.00000086 00000-0 00000-0 0 9999 2 37753 56.7406 351.8758 0130855 58.1716 35.6637 2.00568077 99027 GALILEO-PFM 1 37846U 11060A 25021.34616889 -.00000084 00000-0 00000-0 0 9994 2 37846 57.1170 355.6309 0003591 334.1080 25.8695 1.70475903 82392 GALILEO-FM2 1 37847U 11060B 25021.56918912 -.00000083 00000-0 00000-0 0 9990 2 37847 57.1177 355.6251 0005357 320.5007 221.6393 1.70475446 82401 LUCH 5A 1 37951U 11074B 25021.85682420 -.00000034 00000-0 00000-0 0 9991 2 37951 7.4462 81.5377 0003621 198.4761 316.9445 1.00275701 47926 METEOSAT 10 (MSG 3) 1 38552U 12035B 25021.75228861 .00000013 00000-0 00000-0 0 9997 2 38552 3.4663 61.9586 0001520 256.6567 73.7909 1.00277108 45726 METOP-B 1 38771U 12049A 25021.94036020 .00000319 00000-0 16544-3 0 9992 2 38771 98.6001 79.9194 0001642 73.6911 286.4447 14.21415233640631 NAVSTAR 67 (USA 239) 1 38833U 12053A 25021.28033928 .00000060 00000-0 00000-0 0 9997 2 38833 53.5284 164.5548 0162753 59.5464 302.0221 2.00561331 89170 GALILEO-FM3 1 38857U 12055A 25018.45283716 -.00000014 00000-0 00000-0 0 9992 2 38857 55.5094 115.6877 0003889 263.5236 96.4468 1.70473494 76235 GALILEO-FM4 1 38858U 12055B 25017.02982634 -.00000015 00000-0 00000-0 0 9991 2 38858 55.5192 116.3338 0000752 146.4084 213.6031 1.64591934 4638 NAVSTAR 68 (USA 242) 1 39166U 13023A 25021.64123259 -.00000048 00000-0 00000+0 0 9998 2 39166 54.9229 289.7590 0130854 45.8641 315.2536 2.00562198 85615 INSAT 3D 1 39216U 13038B 25021.70641568 -.00000321 00000-0 00000-0 0 9990 2 39216 0.6008 89.8217 0002161 202.0014 213.2534 1.00267653 41950 NAVSTAR 69 (USA 248) 1 39533U 14008A 25021.63949681 .00000068 00000-0 00000-0 0 9996 2 39533 53.6082 170.1711 0074587 221.2469 138.1631 2.00554682 79421 LUCH 5V 1 39727U 14023A 25021.48522510 -.00000253 00000-0 00000-0 0 9996 2 39727 3.8505 74.4399 0003726 238.2258 77.8205 1.00273848 39223 NAVSTAR 70 (USA 251) 1 39741U 14026A 25021.92301626 -.00000087 00000-0 00000-0 0 9992 2 39741 56.6831 351.3885 0036218 316.6734 43.0435 2.00552966 78287 NAVSTAR 71 (USA 256) 1 40105U 14045A 25021.50545508 -.00000029 00000-0 00000-0 0 9998 2 40105 55.0361 108.8837 0029400 118.5047 241.8203 2.00551251 75810 GALILEO 5 (261) 1 40128U 14050A 25018.14480003 -.00000082 00000-0 00000-0 0 9992 2 40128 49.4321 294.4019 1617886 159.5449 207.7960 1.85519726 68765 GALILEO 6 (262) 1 40129U 14050B 25021.09720942 -.00000077 00000-0 00000-0 0 9994 2 40129 49.4448 293.3623 1617604 160.4417 206.5954 1.85520499 70985 NAVSTAR 72 (USA 258) 1 40294U 14068A 25021.38295310 -.00000059 00000-0 00000-0 0 9994 2 40294 56.6044 50.7445 0054722 64.0928 296.5252 2.00573902 74943 COSMOS 2501 (GLONASS) 1 40315U 14075A 25020.40025833 .00000094 00000-0 00000-0 0 9997 2 40315 63.6176 208.1324 0019121 203.3980 156.5349 2.13101490 78923 NAVSTAR 73 (USA 260) 1 40534U 15013A 25021.51934251 .00000081 00000-0 00000-0 0 9995 2 40534 53.2756 225.3508 0097075 33.8417 326.8158 2.00552484 71567 GALILEO 7 (263) 1 40544U 15017A 25019.36516769 -.00000090 00000-0 00000-0 0 9991 2 40544 56.9119 355.5889 0005892 278.8601 81.0655 1.70475838 60441 GALILEO 8 (264) 1 40545U 15017B 25019.61991614 -.00000090 00000-0 00000-0 0 9996 2 40545 56.9181 355.5984 0005428 269.9561 89.9746 1.70475626 23495 NAVSTAR 74 (USA 262) 1 40730U 15033A 25021.68016661 -.00000045 00000-0 00000-0 0 9990 2 40730 54.4037 288.1228 0102826 22.3135 338.1822 2.00555891 69732 GALILEO 9 (205) 1 40889U 15045A 25018.80202148 .00000051 00000-0 00000-0 0 9991 2 40889 55.1245 235.8127 0006439 44.7046 315.4045 1.70473411 58247 GALILEO 10 (206) 1 40890U 15045B 25020.19580546 .00000060 00000-0 00000-0 0 9999 2 40890 55.1229 235.7694 0004278 44.7671 315.3233 1.70473459 58297 NAVSTAR 75 (USA 265) 1 41019U 15062A 25020.74177482 -.00000062 00000-0 00000-0 0 9997 2 41019 56.5821 50.6249 0102911 227.6977 131.4776 2.00566704 67556 GALILEO 12 (269) 1 41174U 15079A 25020.36463681 -.00000014 00000-0 00000-0 0 9991 2 41174 55.5295 115.3463 0003077 315.4909 44.5015 1.70474767 56037 GALILEO 11 (268) 1 41175U 15079B 25020.58454160 -.00000014 00000-0 00000-0 0 9998 2 41175 55.5276 115.3377 0002683 313.7625 46.2323 1.70474589 56458 NAVSTAR 76 (USA 266) 1 41328U 16007A 25021.32610090 -.00000027 00000-0 00000-0 0 9993 2 41328 55.2241 109.7822 0085459 240.4121 118.7621 2.00551287 65572 GALILEO 14 (26B) 1 41549U 16030A 25019.53496994 .00000056 00000-0 00000+0 0 9999 2 41549 55.2723 235.8225 0004121 20.4260 339.6467 1.70473500 53898 GALILEO 13 (26A) 1 41550U 16030B 25019.79281557 .00000058 00000-0 00000-0 0 9999 2 41550 55.2716 235.8135 0000579 161.3333 198.7248 1.70473823 53913 GALILEO 15 (267) 1 41859U 16069A 25015.96545170 -.00000020 00000-0 00000+0 0 9991 2 41859 55.1941 115.4168 0003232 296.6845 63.2857 1.70474668 50807 GALILEO 16 (26C) 1 41860U 16069B 25021.09874639 -.00000014 00000-0 00000-0 0 9993 2 41860 55.1941 115.2704 0001885 338.5277 21.4808 1.70474958 50927 GALILEO 17 (26D) 1 41861U 16069C 25020.29378988 -.00000014 00000-0 00000-0 0 9991 2 41861 55.1958 115.2998 0003789 273.5365 86.4371 1.70475196 50776 GALILEO 18 (26E) 1 41862U 16069D 25020.43926839 -.00000014 00000-0 00000-0 0 9992 2 41862 55.1945 115.2891 0002483 271.0912 88.8973 1.70475133 50906